Dewpoint
44 42 41 41 43 42 43 42 42 42 42 41 41 40 39 38 37 36 37 38 37 36 37 36 36 37 36 35 36 36 35 34 31 32 34 34 34 32 32 33 33 32 33
44 42 42 41 43 42 42 43 42 42 42 41 41 40 39 39 37 36 36 36 36 36 36 36 35 33 34 34 34 33 33 33 32 30 31 32 31 33 31 32 31 30 32
43 42 42 42 41 42 42 42 42 42 41 41 39 39 39 38 37 36 36 36 36 36 35 35 34 32 32 32 32 32 32 32 32 31 30 31 31 32 30 31 30 31 32
43 41 41 41 41 42 42 41 42 42 40 39 39 40 39 37 36 35 35 35 36 36 36 36 34 32 32 31 31 31 31 31 31 30 29 29 30 30 31 30 30 32 32
43 41 41 41 42 42 42 41 41 41 40 40 40 39 38 34 31 35 34 33 32 34 35 36 35 34 35 33 31 30 30 30 30 29 28 29 28 30 30 31 31 32 32
42 41 42 41 42 41 41 41 41 41 40 40 39 38 36 29 35 35 35 32 32 32 32 34 33 35 35 34 33 33 34 30 28 28 29 29 29 30 32 32 32 32 30
41 42 41 41 41 41 41 41 40 40 39 39 39 38 33 29 33 32 31 33 33 32 32 32 33 31 32 29 30 33 34 33 32 29 29 29 30 32 33 33 33 33 32
40 41 41 40 40 41 40 40 40 40 39 39 39 39 32 28 33 32 30 30 34 33 32 32 33 30 30 29 29 32 31 30 30 30 31 32 33 34 34 34 34 35 32
39 40 40 39 39 40 40 39 39 40 39 39 39 39 35 31 33 32 28 28 32 32 32 33 32 29 31 30 30 31 28 28 30 33 34 35 34 35 35 35 33 31 26
38 39 39 38 39 39 39 39 40 40 39 39 39 40 35 32 34 33 30 31 32 32 31 30 32 29 30 30 29 28 26 26 30 31 32 32 33 33 34 35 35 29 30
39 38 38 38 38 39 39 40 40 40 40 39 39 40 37 34 33 34 33 31 33 31 32 30 29 30 30 30 30 28 27 28 31 31 31 32 33 33 31 34 35 33 30
38 37 38 38 37 38 39 40 40 40 39 38 38 38 39 35 33 34 34 32 32 28 32 31 29 30 30 30 29 31 31 31 31 30 30 31 31 31 29 31 33 34 32
37 36 37 38 36 38 39 39 39 39 39 38 38 37 36 37 33 33 33 32 30 28 30 31 30 30 30 29 30 31 28 29 31 30 30 30 31 32 30 28 32 35 32
36 35 37 37 37 38 38 39 39 39 39 38 37 36 35 32 31 30 30 30 29 28 28 28 28 29 28 28 28 30 28 28 31 31 30 30 31 31 28 28 28 34 31
35 35 36 37 37 38 39 39 39 39 39 38 37 37 35 34 33 31 30 28 28 29 29 30 29 29 29 29 29 29 28 28 30 31 30 30 29 30 28 28 28 33 28
35 35 37 38 38 39 39 36 35 37 36 37 37 38 38 36 34 33 33 32 32 30 27 28 28 27 28 27 27 26 26 26 30 31 31 30 29 30 28 28 28 32 29
35 35 38 38 38 39 38 37 36 32 35 36 36 37 38 36 35 34 34 34 33 28 26 27 28 28 28 28 28 27 26 26 28 30 30 30 30 30 30 28 29 31 30
37 34 38 39 39 39 38 38 38 36 35 33 34 36 36 35 35 34 32 29 26 26 25 26 29 29 30 29 28 27 26 26 28 30 29 30 30 30 30 27 29 30 30
39 37 40 41 40 39 40 38 36 36 35 32 31 31 31 34 33 32 30 29 27 26 26 27 29 30 29 29 28 27 27 26 27 30 30 30 30 30 29 29 28 30 29
41 36 39 41 40 39 40 38 37 36 35 34 33 33 31 30 30 29 29 29 29 28 29 27 29 30 29 29 28 26 25 25 29 29 29 29 29 30 30 30 30 31 30
44 40 39 42 41 40 40 39 38 37 36 36 34 32 32 32 31 30 29 29 30 30 32 32 31 30 30 29 28 27 26 26 26 30 29 28 29 29 30 30 31 31 30
44 41 43 42 42 41 41 41 39 38 37 37 36 33 30 32 30 30 29 29 30 32 32 32 31 31 30 30 29 27 25 23 24 30 28 28 29 29 30 30 30 30 30
43 41 41 42 43 39 40 41 40 39 38 37 36 34 32 32 31 30 30 31 31 32 33 32 32 31 31 30 30 28 26 25 26 29 28 28 28 29 30 30 30 30 30
42 40 40 39 39 41 40 39 40 38 39 37 36 35 33 32 33 32 32 33 32 33 33 34 33 32 31 29 29 28 28 27 27 29 27 27 28 28 30 30 30 30 30
41 39 37 39 39 39 38 38 39 39 38 37 36 36 34 33 33 34 34 34 34 34 34 34 33 31 30 29 28 28 27 27 28 28 28 28 28 28 30 30 30 31 30
39 38 39 40 37 38 40 38 37 38 38 37 37 37 36 34 34 35 35 35 35 35 35 34 33 32 30 30 28 28 25 25 25 22 26 28 28 27 30 31 30 30 30
Lifted_Index
5 6 8 10 11 11 11 11 11 12 12 12 13 13 13 14 14 13 13 13 13 12 13 13 13 13 14 14 14 14 14 14 14 14 15 16 16 15 16 16 17 17 17
5 6 8 10 10 11 11 11 11 12 12 12 12 13 13 14 14 13 13 13 13 12 12 13 13 13 14 14 14 14 15 15 14 14 15 16 15 15 15 15 16 16 17
5 6 8 10 10 10 10 11 11 11 12 12 12 13 13 14 14 13 13 13 13 13 13 13 13 14 14 14 14 15 15 15 15 14 15 15 15 15 15 14 15 15 16
5 6 8 10 10 10 10 11 11 11 11 12 12 13 13 14 14 13 13 13 13 13 13 13 14 14 14 15 15 15 15 15 15 14 15 15 15 15 14 14 14 14 14
5 6 7 9 10 10 11 11 11 11 11 12 12 13 13 14 14 14 13 13 13 13 13 14 14 15 15 15 15 15 15 15 14 14 14 15 15 14 14 14 13 13 14
5 6 7 9 10 11 11 11 11 11 12 12 12 12 13 14 14 14 14 13 13 13 13 14 14 15 16 16 16 16 16 15 15 15 15 15 15 15 15 15 14 14 13
5 6 7 9 10 11 12 12 12 12 12 12 12 12 13 13 14 14 14 14 14 14 14 14 14 15 16 16 16 16 16 16 16 16 16 16 16 16 17 16 15 14 14
5 6 7 9 10 12 12 12 12 12 11 11 12 12 12 13 14 14 14 14 14 14 14 14 14 15 16 16 16 16 16 17 17 17 17 17 18 18 17 17 16 15 14
5 6 7 9 11 12 12 12 12 11 11 11 11 12 12 12 13 14 14 14 14 14 14 14 15 15 16 16 15 15 16 16 17 17 17 18 18 18 18 17 15 14 13
5 6 7 9 11 12 12 12 11 11 11 11 11 11 12 12 12 13 14 14 14 13 14 14 15 15 15 16 15 15 15 16 16 16 16 17 17 17 17 17 16 14 14
5 6 7 9 11 11 11 11 11 11 11 11 11 11 11 11 12 13 14 14 14 13 14 14 15 15 15 15 16 16 16 16 16 15 15 15 16 16 17 17 16 15 15
5 6 7 9 10 11 11 11 11 11 11 11 11 11 11 11 12 13 14 14 14 14 14 14 15 15 15 15 16 16 16 16 16 15 14 14 14 15 16 16 16 16 16
5 6 7 8 10 10 11 11 11 10 10 10 10 10 11 11 11 12 13 14 14 14 14 15 15 15 15 15 16 16 17 17 16 15 14 14 14 15 16 16 16 16 16
5 6 7 8 9 10 10 10 11 10 10 10 10 10 11 11 11 12 13 13 14 14 14 15 15 15 15 15 15 16 17 17 16 15 14 14 15 15 15 15 15 15 15
5 5 6 7 8 9 10 10 10 10 10 10 10 10 11 11 11 12 13 13 13 13 14 14 14 14 13 14 14 16 16 16 16 15 14 14 14 14 14 15 15 15 14
4 5 6 6 7 8 9 9 10 10 10 10 10 10 10 11 11 12 12 13 13 13 13 13 13 13 13 13 14 15 16 16 16 14 14 13 13 13 14 15 15 14 14
4 4 5 6 6 7 8 9 9 10 10 10 10 10 10 10 10 11 12 13 13 13 12 12 12 12 13 13 13 14 15 16 15 14 13 13 13 13 13 14 14 14 13
4 4 4 5 6 6 7 8 9 9 10 10 10 10 10 10 10 10 11 12 12 12 12 12 12 12 13 13 13 14 15 15 15 14 13 12 12 12 13 13 14 14 13
3 4 4 4 5 6 6 7 8 8 9 9 9 9 9 9 10 10 11 12 12 12 12 12 12 12 13 13 13 14 15 15 15 14 13 12 12 12 12 13 13 13 13
2 3 3 4 4 5 5 6 6 7 8 9 9 9 9 9 10 10 11 12 12 12 12 12 12 12 13 13 13 14 14 15 14 13 12 12 12 12 12 13 13 13 13
2 2 3 3 3 4 4 5 5 6 6 8 9 9 9 10 10 11 11 11 11 12 12 12 12 12 12 13 13 13 14 14 14 13 12 11 11 12 12 13 13 13 13
1 2 2 2 3 3 3 4 4 4 5 6 7 8 9 9 10 10 11 11 11 11 12 12 11 12 12 12 13 13 14 14 14 13 12 11 11 11 12 12 12 12 13
1 1 2 2 2 3 3 3 3 3 4 4 6 6 7 7 8 9 10 11 11 11 11 11 11 11 12 12 13 14 14 15 14 13 12 11 11 11 11 11 12 12 12
2 2 2 2 2 2 2 2 2 2 3 3 4 5 5 6 6 7 8 9 10 10 10 10 10 11 11 12 13 14 15 15 15 14 12 11 11 11 11 11 11 11 12
2 2 2 2 2 2 2 2 2 2 2 2 3 3 4 4 5 5 6 8 9 9 9 9 10 10 11 12 12 13 15 15 15 14 13 12 11 11 11 11 11 11 11
3 2 2 2 2 2 2 2 2 2 2 2 3 3 3 4 4 4 5 7 8 9 8 9 10 10 11 12 12 13 14 15 15 14 13 12 11 11 11 11 11 11 11